EHI
0 0 0 0 0 0 0 0 0 0 0 0 0 0 0 0 0 0 0 0 0 0 0 0 0 0 0 0 0 0 0 0 0 0 0 0 0 0 0 0 0 0 0
0 0 0 0 0 0 0 0 0 0 0 0 0 0 0 0 0 0 0 0 0 0 0 0 0 0 0 0 0 0 0 0 0 0 0 0 0 0 0 0 0 0 0
0 0 0 0 0 0 0 0 0 0 0 0 0 0 0 0 0 0 0 0 0 0 0 0 0 0 0 0 0 0 0 0 0 0 0 0 0 0 0 0 0 0 0
0 0 0 0 0 0 0 0 0 0 0 0 0 0 0 0 0 0 0 0 0 0 0 0 0 0 0 0 0 0 0 0 0 0 0 0 0 0 0 0 0 0 0
0 0 0 0 0 0 0 0 0 0 0 0 0 0 0 0 0 0 0 0 0 0 0 0 0 0 0 0 0 0 0 0 0 0 0 0 0 0 0 0 0 0 0
0 0 0 0 0 0 0 0 0 0 0 0 0 0 0 0 0 0 0 0 0 0 0 0 0 0 0 0 0 0 0 0 0 0 0 0 0 0 0 0 0 0 0
0 0 0 0 0 0 0 0 0 0 0 0 0 0 0 0 0 0 0 0 0 0 0 0 0 0 0 0 0 0 0 0 0 0 0 0 0 0 0 0 0 0 0
0 0 0 0 0 0 0 0 0 0 0 0 0 0 0 0 0 0 0 0 0 0 0 0 0 0 0 0 0 0 0 0 0 0 0 0 0 0 0 0 0 0 0
0 0 0 0 0 0 0 0 0 0 0 0 0 0 0 0 0 0 0 0 0 0 0 0 0 0 0 0 0 0 0 0 0 0 0 0 0 0 0 0 0 0 0
0 0 0 0 0 0 0 0 0 0 0 0 0 0 0 0 0 0 0 0 0 0 0 0 0 0 0 0 0 0 0 0 0 0 0 0 0 0 0 0 0 0 0
0 0 0 0 0 0 0 0 0 0 0 0 0 0 0 0 0 0 0 0 0 0 0 0 0 0 0 0 0 0 0 0 0 0 0 0 0 0 0 0 0 0 0
0 0 0 0 0 0 0 0 0 0 0 0 0 0 0 0 0 0 0 0 0 0 0 0 0 0 0 0 0 0 0 0 0 0 0 0 0 0 0 0 0 0 0
0 0 0 0 0 0 0 0 0 0 0 0 0 0 0 0 0 0 0 0 0 0 0 0 0 0 0 0 0 0 0 0 0 0 0 0 0 0 0 0 0 0 0
0 0 0 0 0 0 0 0 0 0 0 0 0 0 0 0 0 0 0 0 0 0 0 0 0 0 0 0 0 0 0 0 0 0 0 0 0 0 0 0 0 0 0
0 0 0 0 0 0 0 0 0 0 0 0 0 0 0 0 0 0 0 0 0 0 0 0 0 0 0 0 0 0 0 0 0 0 0 0 0 0 0 0 0 0 0
0 0 0 0 0 0 0 0 0 0 0 0 0 0 0 0 0 0 0 0 0 0 0 0 0 0 0 0 0 0 0 0 0 0 0 0 0 0 0 0 0 0 0
0 0 0 0 0 0 0 0 0 0 0 0 0 0 0 0 0 0 0 0 0 0 0 0 0 0 0 0 0 0 0 0 0 0 0 0 0 0 0 0 0 0 0
0 0 0 0 0 0 0 0 0 0 0 0 0 0 0 0 0 0 0 0 0 0 0 0 0 0 0 0 0 0 0 0 0 0 0 0 0 0 0 0 0 0 0
0 0 0 0 0 0 0 0 0 0 0 0 0 0 0 0 0 0 0 0 0 0 0 0 0 0 0 0 0 0 0 0 0 0 0 0 0 0 0 0 0 0 0
0 0 0 0 0 0 0 0 0 0 0 0 0 0 0 0 0 0 0 0 0 0 0 0 0 0 0 0 0 0 0 0 0 0 0 0 0 0 0 0 0 0 0
0 0 0 0 0 0 0 0 0 0 0 0 0 0 0 0 0 0 0 0 0 0 0 0 0 0 0 0 0 0 0 0 0 0 0 0 0 0 0 0 0 0 0
0 0 0 0 0 0 0 0 0 0 0 0 0 0 0 0 0 0 0 0 0 0 0 0 0 0 0 0 0 0 0 0 0 0 0 0 0 0 0 0 0 0 0
0 0 0 0 0 0 0 0 0 0 0 0 0 0 0 0 0 0 0 0 0 0 0 0 0 0 0 0 0 0 0 0 0 0 0 0 0 0 0 0 0 0 0
0 0 0 0 0 0 0 0 0 0 0 0 0 0 0 0 0 0 0 0 0 0 0 0 0 0 0 0 0 0 0 0 0 0 0 0 0 0 0 0 0 0 0
0 0 0 0 0 0 0 0 0 0 0 0 0 0 0 0 0 0 0 0 0 0 0 0 0 0 0 0 0 0 0 0 0 0 0 0 0 0 0 0 0 0 0
0 0 0 0 0 0 0 0 0 0 0 0 0 0 0 0 0 0 0 0 0 0 0 0 0 0 0 0 0 0 0 0 0 0 0 0 0 0 0 0 0 0 0
Wind_Speed
5 3 3 3 3 4 6 7 9 9 8 6 5 5 4 3 2 2 3 3 3 3 3 2 2 2 1 1 1 1 0 1 1 2 4 4 3 3 3 2 2 3 3
5 5 4 3 4 5 6 7 9 9 8 6 4 4 4 3 2 2 3 3 3 3 2 3 2 2 1 1 1 1 1 1 1 1 2 4 6 4 3 3 3 3 3
11 8 7 5 5 5 7 7 8 9 8 7 6 5 4 3 2 2 2 2 3 3 3 3 3 2 2 1 1 1 1 0 1 0 1 0 3 4 4 4 3 3 3
9 8 8 7 6 5 5 6 7 8 8 8 8 7 5 4 3 2 2 2 3 3 3 3 3 3 2 2 1 1 1 2 1 1 1 3 3 3 5 4 3 4 4
10 10 9 8 6 5 6 6 7 7 7 7 8 8 5 4 3 3 4 3 3 3 3 3 3 3 2 1 1 1 1 1 2 2 1 2 2 4 5 7 5 4 4
8 8 6 6 5 5 6 6 8 6 6 7 7 8 8 7 6 4 3 2 2 2 3 3 3 2 1 1 0 1 1 1 2 2 2 3 3 3 4 6 6 6 4
9 9 10 9 8 8 7 7 8 7 6 7 7 7 8 8 7 6 4 3 2 1 1 2 1 1 1 0 1 1 1 2 2 3 3 3 4 3 3 4 6 6 4
9 10 11 10 10 9 9 8 8 7 7 7 7 6 7 5 4 5 4 4 3 2 2 2 1 1 0 0 0 1 1 2 3 4 4 3 4 4 4 4 4 6 5
10 10 9 9 10 10 9 9 9 8 7 7 7 6 6 6 5 5 4 3 2 2 2 2 1 0 0 1 1 1 2 2 3 4 4 4 4 4 4 4 4 4 7
8 9 9 9 9 8 7 7 8 8 7 7 7 6 6 5 5 5 5 4 3 3 2 2 1 1 1 1 1 2 3 3 4 3 5 5 4 4 4 5 5 5 7
9 9 9 8 8 7 8 8 8 7 7 7 6 6 5 5 5 5 4 4 3 3 3 2 2 2 2 2 2 3 4 4 5 5 5 7 6 5 5 5 5 6 6
8 8 8 8 8 9 9 9 8 8 8 7 7 7 6 6 5 5 4 4 4 3 3 2 2 3 3 3 4 5 5 5 6 6 6 7 6 7 6 5 6 7 7
7 7 8 10 10 10 10 9 9 9 8 8 8 7 6 6 5 5 4 4 3 3 2 3 3 4 4 4 5 5 6 6 7 7 7 8 7 8 7 7 7 7 8
8 9 9 10 10 10 10 10 9 9 9 8 8 7 7 6 5 5 4 4 3 3 3 3 4 5 5 5 6 6 6 7 7 8 8 8 8 9 8 8 8 8 9
8 11 11 10 10 10 10 10 10 9 9 9 8 7 6 5 5 4 4 3 3 4 4 4 4 5 4 5 6 6 7 7 8 8 8 9 11 14 12 10 8 8 8
9 10 10 10 12 12 12 11 10 10 9 9 8 6 6 5 4 4 4 3 4 4 4 4 5 6 5 10 14 11 6 7 7 8 8 9 11 15 20 22 21 18 12
8 9 10 11 11 11 11 12 11 9 9 8 7 6 6 5 4 4 3 4 4 4 4 5 5 7 9 15 16 17 9 6 7 8 8 8 9 15 9 15 21 19 23
6 7 7 7 7 8 8 9 9 9 9 8 7 6 5 5 4 3 4 4 3 4 5 6 6 7 9 16 17 18 10 7 7 8 9 9 9 10 12 11 11 11 12
4 4 5 6 7 9 9 10 9 8 8 7 6 6 5 4 4 4 5 4 3 4 5 6 6 7 10 16 18 19 7 7 8 8 9 10 10 17 22 15 12 12 11
3 4 6 7 8 8 9 10 9 8 7 6 5 5 4 4 4 5 4 3 4 5 5 6 6 7 9 15 18 19 6 7 8 7 9 16 17 20 23 13 10 13 12
5 6 7 7 7 8 9 9 8 6 5 5 4 3 3 4 4 4 3 4 4 5 5 7 7 7 10 14 18 19 8 7 8 8 6 7 19 23 24 21 12 16 17
6 7 8 7 6 7 8 8 6 5 4 4 3 3 3 3 2 3 4 4 4 5 6 7 8 6 8 12 14 19 19 17 10 8 6 9 21 24 24 18 17 23 20
6 6 8 8 5 5 6 7 5 4 4 3 2 2 2 3 3 3 4 4 4 4 6 6 7 7 6 8 18 20 22 22 13 9 17 21 24 22 14 16 22 18 7
6 6 8 8 5 4 4 5 4 4 4 2 2 2 3 3 3 3 4 4 5 5 6 7 8 8 7 6 6 8 10 15 13 11 15 21 21 16 15 14 10 6 6
5 6 7 7 6 4 4 3 3 4 3 2 3 3 3 4 4 4 5 6 6 7 8 7 7 9 9 11 18 14 9 7 9 11 8 6 5 5 5 6 6 5 6
6 6 6 6 5 4 3 2 3 3 3 2 3 3 3 4 4 5 6 10 12 17 19 19 17 13 18 23 24 24 24 24 24 16 7 6 6 7 7 7 7 6 7
Wind_Direction
228 192 175 152 138 142 148 155 154 155 152 151 149 144 144 136 121 112 113 121 121 125 128 128 122 123 142 159 158 172 270 302 340 340 320 310 312 312 290 289 303 314 324
202 191 174 163 158 152 150 150 154 156 159 154 146 136 132 125 116 106 90 90 107 114 121 125 120 118 120 96 94 105 78 350 32 46 346 336 336 335 324 325 310 310 323
200 189 178 172 159 159 159 154 153 151 148 138 123 107 95 89 96 94 85 64 88 97 103 109 111 106 112 110 101 123 137 244 329 162 166 296 292 304 305 304 301 301 305
191 183 178 172 171 167 152 143 143 142 144 145 146 145 144 146 153 137 118 83 76 87 96 102 105 104 104 105 112 125 153 161 243 287 234 220 218 269 302 301 290 289 286
188 182 179 172 161 153 147 141 135 134 140 144 145 138 128 127 121 112 108 90 70 76 89 99 101 102 103 107 102 104 154 178 199 214 232 255 249 231 255 285 294 295 264
180 170 159 148 145 144 142 140 135 133 137 137 139 140 138 137 133 131 125 111 89 74 77 94 96 101 103 105 127 162 193 207 218 220 211 211 227 231 234 265 284 289 274
174 168 166 166 163 161 158 150 143 139 142 139 141 145 145 146 148 149 148 144 136 126 109 100 103 106 122 153 164 191 238 224 228 234 232 227 230 227 230 257 278 284 286
182 182 180 175 171 168 164 158 153 147 149 146 145 143 142 141 144 149 149 155 159 166 158 138 132 135 145 174 182 230 251 236 241 248 245 243 245 234 226 233 269 293 287
188 185 180 178 174 173 173 168 160 153 155 152 145 144 145 145 147 145 143 148 158 161 152 145 145 171 231 247 239 244 260 257 251 252 253 249 251 243 239 234 226 249 286
189 186 183 182 180 175 168 164 162 160 157 154 153 151 151 150 146 144 152 157 161 158 154 158 174 222 255 256 249 257 259 259 260 250 252 253 252 250 244 238 235 229 252
195 191 187 182 174 166 166 168 166 157 157 158 153 147 149 148 146 152 163 165 166 170 177 190 207 236 254 255 250 257 262 260 265 263 256 258 257 254 251 243 240 241 242
196 189 182 174 174 177 176 175 172 168 166 159 152 152 150 150 155 165 172 171 176 187 196 205 227 247 253 254 252 262 264 260 264 266 263 264 266 259 255 249 248 249 243
192 185 182 185 188 186 183 180 177 171 161 155 153 152 157 162 169 175 177 180 186 201 215 222 239 251 257 259 256 253 258 257 257 259 259 262 263 265 261 254 255 256 259
198 193 194 195 193 188 184 180 177 168 161 157 158 164 172 174 177 179 183 192 198 214 232 239 246 252 257 259 261 258 257 258 258 256 254 255 253 258 262 263 259 258 261
209 203 201 198 190 185 182 178 173 167 162 160 165 174 172 169 171 181 193 203 214 229 239 251 261 261 260 256 256 253 252 254 259 259 255 254 263 269 275 275 263 259 263
221 211 203 195 191 188 182 175 172 168 161 163 169 165 163 168 180 193 201 214 235 246 249 254 260 267 267 280 287 286 262 255 257 264 263 263 274 281 286 288 289 286 281
224 211 204 199 193 186 177 175 168 158 158 160 161 163 167 177 193 199 207 227 241 246 258 261 260 263 272 286 292 293 289 266 260 262 266 272 272 287 277 282 286 285 283
223 210 197 186 173 163 157 152 148 153 154 156 161 166 171 186 196 205 225 239 242 248 256 261 263 266 275 290 296 298 293 272 264 260 260 264 269 270 278 267 265 261 265
213 192 170 154 145 147 146 140 143 146 150 160 168 173 176 188 202 223 239 243 245 256 256 259 265 268 278 290 297 298 282 270 267 263 262 267 266 276 287 286 278 277 271
133 130 124 121 131 138 138 139 145 149 161 168 171 172 177 190 212 229 242 242 244 256 266 269 265 265 271 285 294 296 280 274 274 268 262 274 281 286 290 286 279 283 282
111 116 117 122 132 136 134 137 143 159 161 151 153 167 186 203 220 233 240 252 261 270 272 274 273 268 271 284 290 294 288 272 276 275 269 264 285 291 291 291 285 286 292
115 119 117 114 118 130 132 134 148 150 138 141 155 184 207 221 225 237 257 261 264 273 277 279 281 270 270 280 286 290 291 291 286 280 274 274 288 290 293 295 293 297 302
127 121 122 115 111 120 130 138 148 138 135 142 178 217 237 244 241 242 257 267 262 263 273 275 280 281 268 271 285 291 294 294 290 279 283 289 294 298 298 294 296 301 299
131 127 125 125 125 124 122 133 138 136 139 169 216 234 247 261 259 249 244 250 255 260 268 272 278 281 278 268 267 269 280 285 286 284 284 289 293 292 291 293 295 286 272
130 131 134 135 137 133 127 129 137 138 156 204 235 248 248 253 261 256 245 251 241 245 262 265 266 279 284 280 288 291 285 278 274 284 277 273 276 273 272 274 273 270 276
131 128 128 133 138 138 138 144 152 157 176 228 247 247 251 256 258 269 280 269 267 276 277 279 281 281 284 293 295 297 297 299 297 296 285 281 279 278 280 282 282 278 276